This demonstration page uses our WeatherBlox Daily Observations layout. Learn more.

Left ArrowRight Arrow

Hourly Observations for June 18, 2021

Temp ( °F °C ) Dew Point ( °F °C ) Humidity (%) Winds ( mph kmh ) Pressure ( in mb ) Visibility ( mi km ) Precip ( " mm )
12:15 am 00:15 Clear 85 29.7 51 10.5 30 30 SW 9 15 29.66 1004 10 16 N/A
12:35 am 00:35 Clear 84 28.9 51 10.3 31 31 SW 8 13 29.67 1005 10 16 N/A
12:55 am 00:55 Clear 83 28.1 51 10.3 33 33 SW 6 9 29.66 1005 10 16 N/A
1:15 am 01:15 Clear 81 27 51 10.5 36 36 WSW 6 9 29.68 1005 10 16 N/A
1:35 am 01:35 Clear 78 25.3 58 14.4 51 51 N 3 6 29.70 1006 10 16 N/A
1:55 am 01:55 Clear 73 22.6 64 17.9 75 75 N N/A 29.72 1006 10 16 N/A
2:15 am 02:15 Clear 72 22.1 67 19.7 86 86 N 3 6 29.73 1007 10 16 N/A
2:35 am 02:35 Clear 72 22 68 20.2 90 90 NE 6 9 29.71 1006 10 16 N/A
2:55 am 02:55 Clear 73 22.7 69 20.7 89 89 NW 3 6 29.73 1007 10 16 N/A
3:15 am 03:15 Clear 73 22.7 70 20.9 90 90 NNW 7 11 29.74 1007 10 16 N/A
3:35 am 03:35 Clear 74 23.2 69 20.7 86 86 NNW 8 13 29.73 1007 10 16 N/A
3:55 am 03:55 Clear 74 23.1 67 19.7 81 81 NNE 10 17 29.70 1006 10 16 N/A
4:15 am 04:15 Clear 73 23 67 19.4 80 80 ENE 14 22 29.67 1005 10 16 N/A
4:35 am 04:35 Clear 73 23 67 19.5 81 81 N 12 19 29.70 1006 10 16 N/A
4:55 am 04:55 Clear 73 22.5 67 19.3 82 82 NNE 9 15 29.72 1006 10 16 N/A
5:15 am 05:15 Clear 72 22.2 67 19.2 83 83 E 5 7 29.72 1006 10 16 N/A
5:35 am 05:35 Clear 71 21.8 67 19.2 85 85 E 6 9 29.73 1007 10 16 N/A
5:55 am 05:55 Clear 71 21.5 66 19 86 86 ENE 6 9 29.75 1007 10 16 N/A
6:15 am 06:15 Sunny 69 20.7 66 18.8 89 89 E 7 11 29.75 1008 10 16 N/A
6:35 am 06:35 Sunny 70 21 66 19.1 89 89 ENE 8 13 29.75 1007 10 16 N/A
6:55 am 06:55 Sunny 71 21.5 67 19.3 87 87 NNE 9 15 29.76 1008 10 16 N/A
7:15 am 07:15 Sunny 71 21.6 67 19.3 87 87 NNE 10 17 29.75 1008 10 16 N/A
7:35 am 07:35 Sunny 73 22.5 67 19.5 83 83 NE 15 24 29.75 1007 10 16 N/A
7:55 am 07:55 Sunny 73 23 67 19.5 81 81 NE 12 19 29.74 1007 10 16 N/A
8:15 am 08:15 Sunny 74 23.5 67 19.5 78 78 NE 16 26 29.74 1007 10 16 N/A
8:35 am 08:35 Sunny 74 23.2 67 19.5 80 80 NE 14 22 29.75 1008 10 16 N/A
8:55 am 08:55 Sunny 74 23.6 67 19.5 78 78 NE 12 19 29.75 1007 10 16 N/A
9:15 am 09:15 Sunny 76 24.4 67 19.6 75 75 ENE 17 28 29.74 1007 10 16 N/A
9:35 am 09:35 Sunny 77 25.1 67 19.6 72 72 ENE 12 19 29.74 1007 10 16 N/A
9:55 am 09:55 Sunny 78 25.8 67 19.7 69 69 E 13 20 29.73 1007 10 16 N/A
10:15 am 10:15 Sunny 80 26.5 67 19.4 65 65 E 14 22 29.72 1006 10 16 N/A
10:35 am 10:35 Sunny 81 27.3 67 19.6 63 63 E 12 19 29.72 1006 10 16 N/A
10:55 am 10:55 Sunny 82 27.7 67 19.6 61 61 E 13 20 29.72 1006 10 16 N/A
11:15 am 11:15 Sunny 83 28.6 67 19.3 57 57 E 13 20 29.71 1006 10 16 N/A
11:35 am 11:35 Sunny 82 27.5 66 19 60 60 E 13 20 29.72 1006 10 16 N/A
11:55 am 11:55 Sunny 83 28.6 67 19.2 57 57 E 14 22 29.71 1006 10 16 N/A
12:15 pm 12:15 Sunny 84 28.9 66 19 55 55 E 13 20 29.71 1006 10 16 N/A
12:35 pm 12:35 Sunny 83 28.3 65 18.5 55 55 ENE 10 17 29.72 1006 10 16 N/A
12:55 pm 12:55 Sunny 86 29.9 65 18.6 51 51 ENE 12 19 29.72 1006 10 16 N/A
1:15 pm 13:15 Sunny 87 30.3 65 18.4 49 49 E 16 26 29.70 1006 10 16 N/A
1:35 pm 13:35 Sunny 88 30.9 66 19.1 49 49 E 16 26 29.68 1005 10 16 N/A
1:55 pm 13:55 Sunny 86 30.2 66 18.8 50 50 E 16 26 29.68 1005 10 16 N/A
2:15 pm 14:15 Sunny 87 30.6 65 18.6 49 49 ESE 22 35 29.66 1005 10 16 N/A
2:35 pm 14:35 Sunny 87 30.7 64 17.5 45 45 E 14 22 29.67 1005 10 16 N/A
2:55 pm 14:55 Sunny 87 30.5 63 17 44 44 NE 9 15 29.71 1006 10 16 N/A
3:15 pm 15:15 Sunny 86 30 63 17.4 47 47 ENE 13 20 29.71 1006 10 16 N/A
3:35 pm 15:35 Sunny 86 30.1 65 18.5 50 50 E 13 20 29.70 1006 10 16 N/A
3:55 pm 15:55 Sunny 85 29.4 66 19 54 54 ENE 13 20 29.69 1006 10 16 N/A
4:15 pm 16:15 Sunny 86 30.1 66 18.8 51 51 ESE 18 30 29.67 1005 10 16 N/A
4:35 pm 16:35 Sunny 86 30 64 17.5 47 47 E 17 28 29.66 1004 10 16 N/A
4:55 pm 16:55 Sunny 87 30.5 64 17.6 46 46 NE 10 17 29.69 1006 10 16 N/A
5:15 pm 17:15 Sunny 85 29.5 65 18.2 51 51 NE 12 19 29.70 1006 10 16 N/A
5:35 pm 17:35 Sunny 84 29 69 20.5 60 60 NNE 14 22 29.71 1006 10 16 N/A
5:55 pm 17:55 Sunny 83 28.4 69 20.5 62 62 NNE 16 26 29.71 1006 10 16 N/A
6:15 pm 18:15 Sunny 82 28 69 20.5 64 64 NNE 13 20 29.71 1006 10 16 N/A
6:35 pm 18:35 Sunny 82 27.7 70 20.9 67 67 N 9 15 29.73 1007 10 16 N/A
6:55 pm 18:55 Sunny 82 27.5 69 20.6 66 66 NNE 13 20 29.72 1006 10 16 N/A
7:15 pm 19:15 Sunny 82 27.5 69 20.5 66 66 NNE 12 19 29.73 1007 10 16 N/A
7:35 pm 19:35 Sunny 81 27.4 69 20.3 65 65 ENE 13 20 29.70 1006 10 16 N/A
7:55 pm 19:55 Sunny 81 27.2 68 20 65 65 NE 10 17 29.71 1006 10 16 N/A
8:15 pm 20:15 Sunny 80 26.4 66 19.1 64 64 E 15 24 29.69 1005 10 16 N/A
8:35 pm 20:35 Sunny 79 26.2 66 18.8 64 64 ENE 8 13 29.71 1006 10 16 N/A
8:55 pm 20:55 Sunny 78 25.7 65 18.5 65 65 E 10 17 29.70 1006 10 16 N/A
9:15 pm 21:15 Clear 78 25.4 65 18.3 65 65 ESE 10 17 29.70 1006 10 16 N/A
9:35 pm 21:35 Clear 76 24.5 65 18.5 69 69 NNE 20 31 29.71 1006 10 16 N/A
9:55 pm 21:55 Clear 77 25 65 18.5 67 67 NNW 10 17 29.77 1008 10 16 N/A
10:15 pm 22:15 Clear 76 24.4 64 18 68 68 NNE 7 11 29.76 1008 10 16 N/A
10:35 pm 22:35 Clear 74 23.5 64 18 71 71 NNE 5 7 29.78 1008 10 16 N/A
10:55 pm 22:55 Clear 72 22.2 65 18.3 79 79 N 7 11 29.79 1009 10 16 N/A
11:15 pm 23:15 Clear 72 22.3 65 18.2 78 78 N N/A 29.80 1009 10 16 N/A
11:35 pm 23:35 Hazy 71 21.7 65 18.2 81 81 N 3 6 29.80 1009 5 8 N/A
11:55 pm 23:55 Clear 70 21.1 64 18 83 83 NNE 7 11 29.80 1009 10 16 N/A

Powered by AerisWeather